Location: Rumah Dana
(3.1167°N, 113.0167°E)
Time: 03:16:15
(UTC+00:00)

BlueWalker 3 - Visible Passes

Search period start: 09 March 2026 00:00
Search period end: 19 March 2026 00:00
Orbit: 451 x 458 km, 53.2° (Epoch: 8 March)

Date Brightness Start Highest point End Pass type
(mag) Time Alt. Az. Time Alt. Az. Time Alt. Az.
15 Mar 4.8 12:29:29 10° SSW 12:29:29 10° SSW 12:29:29 10° SSW visible
16 Mar 2.6 11:53:25 10° SSW 11:55:56 35° SSE 11:55:56 35° SSE visible
17 Mar 2.7 11:17:32 10° S 11:20:37 27° SE 11:22:32 17° ENE visible
18 Mar 4.5 12:19:20 10° W 12:21:36 16° NW 12:23:04 13° NNW visible
